STARLINK-30460, 57870

Orbit data source: Space-Track

STARLINK-30460, 57870 is a payload satellite owned by SpaceX/Seattle (US) in LEO that was launched on Sat, 16 Sep 2023 UTC via an FALCON 9 launch vehicle from the Air Force Eastern Test Range (AFETR). Payload-class satellites include a variety of spacecraft equipped with specific instruments for various scientific and technological missions. These include communications satellites like Starlink; space stations such as the ISS; scientific satellites like the Hubble; Earth observation satellites from companies like Planet Labs, Umbra, and HawkEye 360; GPS; miniature CubeSats for education and research; and military/defense satellites.

Loading next visibility...
Identifier
57870, 2023-144G
Orbit
LEO
Country
Flag of USUS
Related business
Manufacturer
SpaceX/Seattle
Mission
Operational Commercial Communications
Bus & Motor
STARLINK V2M, Unknown motor
Mass
730 kg wet, ~700 kg dry
Launch date (UTC)
2023-09-16 (2 years ago)
Launch vehicle
FALCON 9
Launch site
Air Force Eastern Test Range (AFETR)
Object type
Payload
Rocket body
Debris
Shape & HBR
Box + 2 Pan, 17.7 m
Radar Cross Section
33.884 m², Large (>1 m²)

Expand to show TLE details & history
Last TLE update: 1 day ago

TLE from 1 day ago
0 STARLINK-30460
1 57870U 23144G   25348.43844382  .00000050  00000-0  18821-4 0  9998
2 57870  43.0015  30.9670 0001587 298.1402  61.9280 15.02522526124793
Epoch: 2025-12-14T10:31Z
TLE epoch observation values (Epoch: 2025-12-14T10:31:21.546Z)
Latitude
0.00001°
Longitude
149.77588°
Altitude
558.381 km
Speed
7.584 km/s
True Right ascension
02h 03m 52s
True Declination
0° 00' 00"
Sunlit
Object was in full shadow at epoch
Visualization orbit readout
Latitude
Unknown
Longitude
Unknown
Altitude
Unknown
Speed
Unknown
Apparent Right ascension
Unknown
Apparent Declination
Unknown
Sunlit
N/A
Visualization observer readout
Local Sidereal Time
13:24:39
Azimuth
Unknown
Elevation
Unknown
Doppler factor
Unknown
Orbital elements
Apogee altitude
562.146 km
Perigee altitude
559.943 km
Semi-major axis
6,939.182 km
Eccentricity
0.00016
Inclination
43.0015°
RAAN
30.967°
Arg. of periapsis
298.1402°
True anomaly
61.94405°
Mean anomaly
61.928°
Eccentric anomaly
61.93602°
Mean motion
3.75475 °/min
Orbital period
95.88 mins
BSTAR
0.000018821
Loading maneuver chart data...
Computing Atmospheric mass density...
Loading historical data...
Loading historical data...
Loading historical data...
Loading historical data...
Loading historical data...
Loading historical data...
Loading historical data...

Documentation

Showing up to 5 results
|